Weather History for GMMX - December, 2012

Change the Weather History Date:

Friday, December 21, 2012

  Actual Average Record
Temperature  
Mean Temperature 58 °F -  
Max Temperature 76 °F 63 °F - (-1)
Min Temperature 41 °F 42 °F - (-1)
Degree Days  
Heating Degree Days 6    
Growing Degree Days 8 (Base 50)    
Moisture  
Dew Point 40 °F    
Average Humidity 57    
Maximum Humidity 87    
Minimum Humidity 17    
Precipitation  
Precipitation 0.00 in 0.04 in - ()
Sea Level Pressure  
Sea Level Pressure 30.24 in    
Wind  
Wind Speed 3 mph ()    
Max Wind Speed 9 mph    
Max Gust Speed -    
Visibility 5.6 miles    
Events      
Averages and records for this station are not official NWS values.
T = Trace of Precipitation, MM = Missing Value Source: Averaged Metar Reports

Daily Weather History Graph

Daily Weather History Graph

Search for Another Location

Airport or City:

Trip Planner

Search our weather history database for the weather conditions in past years. The results will help you decide how hot, cold, wet, or windy it might be!

Date:

Astronomy

Dec. 21, 2012 Rise Set
Actual Time 7:27 AM WET 5:33 PM WET
Civil Twilight 7:00 AM WET 6:00 PM WET
Nautical Twilight 6:30 AM WET 6:30 PM WET
Astronomical Twilight 6:00 AM WET 7:00 PM WET
Moon 12:58 PM WET (12/21) 1:17 AM WET (12/21)
Length of Visible Light 10h 59m
Length of Day
10h 05m
Waxing Gibbous, 62% of the Moon is Illuminated
Dec 21
Waxing Gibbous
Dec 28
Full
Jan 5
Last Quarter
Jan 11
New
Jan 18
First Quarter

Hourly Weather History & Observations

Time (WET) Temp. Windchill Dew Point Humidity Pressure Visibility Wind Dir Wind Speed Gust Speed Precip Events Conditions
12:00 AM 47 °F - 42 °F 76% 30.30 in 6 mi East 3.5 mph - -   Clear
12:00 AM 46.4 °F 45.2 °F 41.0 °F 81% 30.27 in - ESE 3.5 mph - N/A   Clear
1:00 AM 46.4 °F 44.3 °F 41.0 °F 81% 30.24 in - East 4.6 mph - N/A   Clear
1:30 AM 48.2 °F - 41.0 °F 76% 30.24 in - ENE 3.5 mph - N/A   Clear
2:00 AM 46.4 °F 45.2 °F 41.0 °F 81% 30.24 in - ENE 3.5 mph - N/A   Clear
2:30 AM 46.4 °F - 39.2 °F 76% 30.24 in - Calm Calm - N/A   Clear
3:00 AM 45 °F - 40 °F 76% 30.28 in 6 mi Calm Calm - -   Clear
3:00 AM 44.6 °F - 39.2 °F 81% 30.24 in - Calm Calm - N/A   Clear
3:30 AM 42.8 °F - 39.2 °F 87% 30.24 in - Calm Calm - N/A   Clear
4:00 AM 44.6 °F - 39.2 °F 81% 30.21 in - Calm Calm - N/A   Clear
4:30 AM 42.8 °F - 39.2 °F 87% 30.21 in - Calm Calm - N/A   Clear
5:00 AM 42.8 °F - 39.2 °F 87% 30.21 in - Calm Calm - N/A   Clear
5:30 AM 42.8 °F - 37.4 °F 81% 30.21 in - Calm Calm - N/A   Clear
6:00 AM 42 °F - 38 °F 79% 30.27 in 6 mi Calm Calm - -   Clear
6:00 AM 42.8 °F - 39.2 °F 87% 30.21 in - Calm Calm - N/A   Clear
6:30 AM 42.8 °F 40.1 °F 37.4 °F 81% 30.21 in - East 4.6 mph - N/A   Clear
7:00 AM 42.8 °F 38.6 °F 37.4 °F 81% 30.21 in - East 6.9 mph - N/A   Clear
7:30 AM 41.0 °F 37.1 °F 37.4 °F 87% 30.24 in - East 5.8 mph - N/A   Clear
8:00 AM 44.6 °F 43.1 °F 37.4 °F 76% 30.24 in - ESE 3.5 mph - N/A   Clear
8:30 AM 46.4 °F 43.5 °F 39.2 °F 76% 30.24 in 5.0 mi East 5.8 mph - N/A   Unknown
9:00 AM 50 °F - 40 °F 60% 30.27 in 5 mi East 3.5 mph - -   Clear
9:00 AM 50.0 °F - 41.0 °F 71% 30.24 in 5.0 mi East 3.5 mph - N/A   Unknown
9:30 AM 55.4 °F - 39.2 °F 54% 30.24 in 5.0 mi ESE 3.5 mph - N/A   Unknown
10:00 AM 59.0 °F - 41.0 °F 51% 30.24 in 5.0 mi Variable 2.3 mph - N/A   Partly Cloudy
10:30 AM 62.6 °F - 41.0 °F 45% 30.27 in 5.0 mi ESE 3.5 mph - N/A   Partly Cloudy
11:00 AM 66.2 °F - 41.0 °F 40% 30.27 in 5.0 mi ENE 3.5 mph - N/A   Partly Cloudy
11:30 AM 68.0 °F - 39.2 °F 35% 30.24 in 5.0 mi NNE 4.6 mph - N/A   Partly Cloudy
12:00 PM 67 °F - 40 °F 26% 30.22 in 5 mi NNE 4.6 mph - -   Scattered Clouds
12:00 PM 66.2 °F - 41.0 °F 40% 30.24 in 5.0 mi NNE 4.6 mph - N/A   Scattered Clouds
12:30 PM 69.8 °F - 37.4 °F 31% 30.24 in 5.0 mi NE 5.8 mph - N/A   Scattered Clouds
1:00 PM 71.6 °F - 37.4 °F 29% 30.21 in 5.0 mi ENE 4.6 mph - N/A   Scattered Clouds
1:30 PM 73.4 °F - 39.2 °F 29% 30.21 in 6.2 mi East 3.5 mph - N/A   Scattered Clouds
2:00 PM 75.2 °F - 41.0 °F 29% 30.21 in 6.2 mi East 3.5 mph - N/A   Scattered Clouds
2:30 PM 75.2 °F - 41.0 °F 29% 30.18 in 6.2 mi ENE 4.6 mph - N/A   Scattered Clouds
3:00 PM 76 °F - 39 °F 17% 30.14 in 6 mi NE 3.5 mph - -   Scattered Clouds
3:00 PM 75.2 °F - 41.0 °F 29% 30.18 in 6.2 mi ENE 4.6 mph - N/A   Scattered Clouds
3:30 PM 77.0 °F - 41.0 °F 28% 30.18 in 6.2 mi NE 3.5 mph - N/A   Scattered Clouds
4:00 PM 77.0 °F - 41.0 °F 28% 30.18 in 6.2 mi NE 5.8 mph - N/A   Scattered Clouds
4:30 PM 77.0 °F - 42.8 °F 29% 30.21 in 6.2 mi NE 3.5 mph - N/A   Scattered Clouds
5:00 PM 73.4 °F - 39.2 °F 29% 30.21 in 6.2 mi NNE 9.2 mph - N/A   Scattered Clouds
5:30 PM 69.8 °F - 39.2 °F 33% 30.24 in 6.2 mi NE 6.9 mph - N/A   Scattered Clouds
5:45 PM 67 °F - 40 °F 26% 30.21 in 6 mi East 8.1 mph - -   Clear
6:00 PM 68.0 °F - 41.0 °F 37% 30.24 in - East 6.9 mph - N/A   Clear
6:30 PM 64.4 °F - 41.0 °F 42% 30.24 in - ESE 6.9 mph - N/A   Clear
7:00 PM 62.6 °F - 42.8 °F 48% 30.24 in - ESE 5.8 mph - N/A   Clear
7:30 PM 62.6 °F - 42.8 °F 48% 30.24 in - SE 4.6 mph - N/A   Clear
8:00 PM 60.8 °F - 41.0 °F 48% 30.27 in - East 2.3 mph - N/A   Clear
8:30 PM 57.2 °F - 42.8 °F 59% 30.27 in - East 3.5 mph - N/A   Clear
9:00 PM 56 °F - 43 °F 51% 30.27 in 6 mi East 5.8 mph - -   Clear
9:00 PM 57.2 °F - 42.8 °F 59% 30.27 in - East 5.8 mph - N/A   Clear
9:30 PM 53.6 °F - 42.8 °F 67% 30.27 in 4.3 mi ESE 4.6 mph - N/A   Unknown
10:00 PM 51.8 °F - 42.8 °F 71% 30.27 in 5.0 mi ESE 2.3 mph - N/A   Unknown
10:30 PM 51.8 °F - 41.0 °F 67% 30.27 in 5.6 mi ESE 1.2 mph - N/A   Unknown
11:00 PM 51.8 °F - 41.0 °F 67% 30.27 in - SE 1.2 mph - N/A   Clear
11:30 PM 50.0 °F - 41.0 °F 71% 30.27 in - ESE 3.5 mph - N/A   Clear